Wind_Speed
34 35 37 38 39 40 41 41 41 41 41 41 40 41 41 42 42 43 44 44 45 45 44 44 44 44 44 44 43 43 43 42 42 42 42 43 43 43 42 41 40 40 43 43 43 44 43 42 42 41 41 40 41 41 41 41 41 41 41 41 41 42 42 43 43 45 48 50 51 51 52 52 53 54 57 59 59 57 56 55 54 53 52 52 52
33 34 35 37 38 39 40 41 41 41 41 41 41 41 40 40 40 41 42 43 44 45 45 46 46 45 45 45 45 44 44 44 44 44 45 45 45 45 43 42 42 42 44 45 45 45 45 44 44 43 43 43 43 42 42 41 41 40 40 41 41 41 41 42 42 44 47 49 50 50 50 50 51 51 52 54 58 59 59 57 56 55 54 53 53
33 33 34 35 37 38 39 40 41 42 42 42 42 41 40 40 40 40 41 42 43 44 46 47 47 47 47 47 47 46 46 46 46 47 47 47 47 46 44 43 43 44 45 46 47 47 46 46 46 45 45 45 44 43 42 42 42 41 41 41 41 42 42 42 42 43 45 48 49 50 49 49 49 49 48 49 51 56 59 60 59 57 56 55 54
32 33 34 35 36 37 38 39 41 41 42 42 42 42 42 42 42 42 42 43 43 44 46 47 48 49 49 49 49 49 48 48 48 48 48 47 47 46 45 45 44 45 47 48 49 48 48 48 47 47 47 47 46 44 43 43 43 43 42 42 43 44 44 44 44 44 46 48 50 52 52 51 50 49 48 46 46 49 55 59 61 60 58 56 56
31 32 33 34 35 36 37 38 39 40 41 42 42 43 43 44 44 44 44 44 44 45 46 47 49 50 50 51 51 51 50 50 49 49 48 48 48 48 47 46 45 46 48 49 49 49 49 49 48 48 49 48 47 45 45 45 45 45 45 45 45 45 46 46 46 47 48 50 51 53 55 55 53 51 49 47 46 45 47 54 60 62 61 59 58
31 32 33 34 35 36 37 38 38 39 40 41 41 42 43 44 44 44 44 44 44 45 46 47 49 50 51 52 52 53 52 52 51 51 50 50 50 49 49 48 46 47 49 50 50 51 51 50 50 50 50 49 48 47 46 46 46 46 46 47 47 47 46 47 47 48 50 51 51 52 54 54 53 52 51 49 47 45 44 47 53 60 63 62 60
31 32 33 34 35 36 36 37 38 38 39 39 40 41 42 43 43 43 44 44 45 46 47 48 49 50 51 53 54 54 54 54 53 53 52 52 52 51 50 49 48 48 49 51 52 53 53 52 52 52 51 50 50 49 48 47 46 46 47 48 49 48 48 48 49 50 50 49 50 52 53 52 52 52 52 51 50 48 46 44 46 52 60 64 63
32 32 34 35 35 36 36 36 37 38 39 39 40 40 42 43 44 45 45 46 47 47 48 48 49 50 51 52 54 55 55 55 55 55 54 54 54 53 52 51 51 50 51 53 54 55 55 54 55 54 54 53 52 51 50 49 48 48 49 50 50 50 50 49 49 49 49 49 50 51 52 52 53 53 54 53 52 52 50 47 47 48 52 60 65
33 33 34 35 35 35 35 35 36 37 38 39 40 40 41 43 44 45 46 47 48 49 49 49 49 50 51 52 53 54 55 55 55 56 56 55 56 55 53 53 53 52 52 54 56 57 57 57 57 57 56 56 55 54 53 52 52 52 51 51 51 52 51 50 49 49 49 50 51 53 53 54 54 53 53 54 54 54 53 52 52 51 51 53 61
34 34 34 34 34 33 34 34 34 35 36 37 38 39 40 41 42 44 45 46 47 48 49 50 50 50 51 52 53 54 55 55 55 56 56 56 56 56 55 54 55 54 55 56 57 59 59 59 59 58 59 59 57 56 56 55 54 53 53 53 53 53 53 52 52 52 52 53 53 54 54 54 54 54 54 55 55 56 56 56 56 56 55 53 55
35 34 34 33 33 33 33 33 34 34 35 35 36 38 39 40 41 42 43 44 45 46 48 49 49 50 50 51 52 53 54 54 54 55 55 55 55 56 56 56 56 56 56 57 59 60 61 61 61 61 61 60 59 58 58 58 56 54 54 55 55 55 56 56 57 57 56 55 54 54 53 53 54 55 55 55 56 57 58 59 59 60 59 58 56
34 34 33 34 34 33 33 33 34 34 34 35 36 37 38 39 40 41 42 43 44 45 46 47 48 49 49 50 51 52 52 52 53 53 53 53 54 55 55 56 56 57 58 59 60 61 63 63 64 64 64 62 61 60 60 59 57 56 55 56 57 57 58 59 60 60 60 58 56 55 55 55 55 56 57 57 57 58 59 60 61 62 62 62 60
34 34 34 35 35 35 35 35 34 34 34 35 36 37 38 39 40 41 43 43 44 45 45 47 48 48 49 49 50 51 52 52 52 52 52 52 53 53 53 54 54 56 57 58 60 61 63 64 65 66 65 64 63 62 62 61 60 58 58 57 58 58 59 60 61 62 62 62 60 59 59 58 58 58 58 59 59 60 61 61 62 63 64 64 63
34 35 36 37 37 38 37 36 36 35 36 36 37 38 39 40 41 42 43 44 44 44 45 46 47 47 48 49 51 51 51 52 52 52 52 52 52 51 51 51 52 54 55 57 59 61 63 64 65 66 66 66 66 65 64 63 62 61 60 60 60 60 60 60 62 63 64 64 64 63 63 63 62 61 61 61 61 61 61 62 63 64 65 65 65
36 36 37 38 39 39 38 38 37 37 38 38 39 40 41 41 42 43 43 44 44 44 44 45 45 46 47 48 50 51 51 51 52 52 52 52 52 51 51 52 53 54 55 57 59 60 62 64 65 66 67 68 68 68 67 65 64 63 63 63 63 63 63 63 64 65 65 66 66 65 65 65 65 65 64 63 63 63 62 62 62 63 65 66 66
38 39 39 40 40 40 39 38 38 39 40 40 41 42 42 42 43 44 44 44 44 44 44 44 45 46 47 47 48 49 50 50 51 51 51 52 52 53 54 55 55 56 57 58 59 60 61 63 65 66 67 67 68 68 68 67 65 65 65 65 66 66 66 66 67 66 66 66 65 65 65 66 67 67 67 66 65 64 63 63 63 63 65 66 66
41 42 42 42 42 41 40 40 40 41 42 42 43 43 43 43 43 44 44 44 44 45 44 44 44 45 46 47 47 48 49 50 50 51 51 52 54 55 56 57 57 57 58 59 59 60 60 62 64 65 66 67 68 68 68 67 67 67 68 68 69 69 69 68 68 67 67 66 66 66 67 68 68 68 68 68 67 66 65 64 63 64 65 66 66
43 44 45 45 44 44 43 43 43 43 44 44 44 44 43 43 43 43 43 44 44 45 45 45 45 45 46 46 47 48 49 50 50 51 52 54 55 57 58 58 59 60 60 61 61 61 61 62 63 64 66 68 68 68 68 68 69 69 70 70 70 69 69 69 68 68 67 67 67 68 68 69 69 69 70 70 69 67 65 64 64 66 67 67 67
45 46 47 47 47 47 47 46 46 46 46 45 45 44 43 43 42 43 43 43 44 45 45 46 46 46 47 47 48 49 50 52 53 53 54 55 56 57 58 59 59 61 61 62 62 62 62 63 63 64 65 66 67 67 68 69 70 70 70 70 70 70 70 69 69 69 69 69 69 69 69 70 70 71 72 71 69 67 65 64 66 68 70 70 69
46 48 50 50 50 50 50 49 48 48 48 47 47 46 45 43 43 43 44 44 45 46 46 47 48 48 49 49 50 51 52 54 55 56 56 56 57 57 58 58 59 60 61 62 62 62 62 63 64 64 65 65 66 67 68 69 70 70 70 69 69 69 69 70 70 71 71 70 70 70 70 71 72 74 74 73 70 67 65 65 67 69 71 72 70
47 50 52 53 53 52 52 51 51 51 51 50 49 48 47 46 45 45 46 46 47 48 48 49 50 50 51 52 52 53 54 55 56 57 57 57 57 58 58 58 59 61 62 62 62 63 64 64 64 64 65 65 66 67 68 69 70 69 68 67 67 68 69 70 71 72 72 71 71 71 72 73 75 76 76 74 72 71 69 68 69 71 72 72 71
48 51 54 55 55 54 54 53 53 53 54 53 52 51 50 49 48 47 47 48 48 49 50 51 51 52 53 53 54 55 56 56 57 57 58 58 57 58 60 60 60 61 63 63 63 65 65 66 66 65 65 65 66 67 68 69 68 67 66 66 66 67 69 70 71 72 72 72 72 72 73 75 76 77 77 75 74 75 74 73 72 73 72 72 70
49 51 54 57 57 56 55 55 55 56 56 56 54 53 52 51 51 50 50 50 50 51 51 52 53 54 54 55 56 56 57 58 59 59 59 59 59 60 61 62 62 63 65 65 65 66 67 68 68 67 66 66 67 67 68 69 68 68 67 67 66 67 68 70 71 71 72 73 74 74 75 76 77 78 77 76 76 76 77 78 78 77 74 72 70
49 51 54 57 59 58 57 56 57 57 57 57 56 55 55 54 53 52 52 52 52 53 53 54 54 55 55 56 57 58 58 59 60 61 61 62 62 62 63 65 65 65 67 67 67 68 69 70 69 68 68 68 68 68 68 69 69 69 69 69 68 68 68 70 70 72 74 75 76 76 77 77 77 78 78 77 77 78 80 83 84 82 78 73 69
48 50 52 55 60 61 60 58 58 58 58 58 58 57 56 55 54 53 53 52 53 53 54 54 55 56 56 58 59 60 60 61 61 62 63 64 65 65 65 66 67 67 68 68 68 69 70 71 70 69 69 70 70 69 69 69 70 70 71 70 70 69 69 70 71 73 75 76 76 76 77 77 78 78 78 78 79 80 82 85 87 86 81 75 69
49 50 52 54 58 62 63 61 60 59 59 58 58 58 57 56 55 54 53 53 53 54 54 55 56 58 60 61 62 62 62 62 63 64 65 66 67 68 67 68 69 69 69 69 69 69 69 69 69 68 68 68 68 68 69 70 71 71 72 71 71 70 69 70 72 74 75 75 75 75 76 76 77 77 78 79 80 82 84 86 87 86 81 77 71
51 52 53 55 56 59 61 63 63 62 61 60 59 59 58 58 57 56 55 55 56 56 57 59 60 61 62 62 62 63 63 64 65 66 68 69 70 71 71 71 71 71 70 69 69 69 69 68 67 67 67 67 68 70 71 71 72 72 71 71 70 70 71 73 74 75 74 73 73 73 74 75 76 77 78 80 82 84 85 85 85 84 81 79 75
50 51 53 56 57 58 60 62 63 63 62 61 60 59 59 59 59 59 58 59 59 60 61 61 61 61 61 61 62 63 64 65 67 68 70 72 73 74 75 75 74 73 71 69 67 66 67 68 68 68 69 70 71 73 74 73 73 72 71 71 71 71 73 74 75 75 74 74 74 74 74 75 76 78 80 82 83 83 84 84 84 83 82 80 78
50 51 52 54 56 58 58 59 61 62 62 61 60 59 59 60 60 61 61 60 60 61 60 60 60 60 61 62 63 64 65 67 69 71 73 74 75 76 76 76 77 76 74 72 69 66 64 66 68 69 70 71 72 73 75 75 74 73 72 73 74 74 75 74 74 74 74 74 74 74 74 76 77 79 81 82 83 84 85 85 86 85 84 82 79
51 51 53 54 55 55 56 58 59 60 60 59 59 58 59 59 60 60 59 58 58 59 59 59 60 61 62 63 65 66 68 70 72 73 74 75 75 75 75 75 76 76 75 74 72 68 66 67 68 70 70 70 70 72 74 75 75 75 75 76 77 77 76 75 74 74 74 74 74 74 75 76 78 80 82 85 86 88 88 89 89 88 87 84 81
52 51 52 53 53 53 53 54 56 57 57 56 56 55 56 57 58 58 58 58 58 59 60 61 62 63 64 66 67 69 70 72 73 74 74 74 74 74 73 73 74 74 74 74 71 67 66 68 70 71 71 71 72 73 74 75 76 76 77 78 78 77 76 75 74 75 75 76 76 77 77 78 80 83 86 88 90 91 92 92 92 91 89 87 84
54 51 51 52 51 51 50 51 52 53 54 54 54 55 56 58 59 60 60 60 61 62 62 63 64 65 66 68 69 71 72 72 73 73 72 72 72 71 70 70 71 71 71 71 70 66 65 67 70 72 73 73 74 75 75 76 77 77 78 78 78 78 77 76 76 77 78 80 80 81 82 83 85 87 90 92 93 94 95 95 94 93 91 89 87
53 52 52 52 51 51 50 50 50 52 54 55 56 57 59 61 62 62 62 62 63 64 64 65 66 67 68 69 71 71 72 72 72 72 71 70 68 67 66 66 67 68 69 70 71 68 65 66 69 71 74 74 74 76 77 77 77 78 78 78 79 79 80 79 80 81 83 84 84 85 86 88 90 93 95 96 97 97 98 97 96 94 93 91 89
54 53 52 52 52 51 50 51 51 53 55 56 57 59 61 62 62 63 63 64 65 65 65 66 67 68 69 70 70 71 71 71 70 69 68 66 65 64 64 65 66 68 70 71 71 69 65 64 67 70 73 75 74 75 76 77 78 79 79 79 80 80 81 81 82 84 85 86 87 88 90 93 95 98 99 100 100 101 100 99 97 96 95 93 91
54 53 52 52 51 51 51 51 52 54 56 57 58 58 59 60 61 62 63 64 64 64 65 66 66 67 68 68 68 68 68 67 66 65 64 63 63 64 65 66 68 69 70 70 69 69 66 64 66 69 71 74 74 74 75 76 78 79 79 79 79 80 81 83 84 85 87 89 90 91 93 95 98 100 101 102 103 102 101 100 99 98 96 94 92
53 51 51 51 50 51 51 53 55 57 59 60 60 59 59 61 63 63 64 63 63 63 64 64 65 65 65 65 66 66 65 65 64 64 64 64 66 67 68 70 71 71 71 71 70 70 68 66 66 68 70 72 73 73 74 75 76 77 78 78 79 80 82 84 86 88 89 91 91 92 93 96 99 101 103 104 104 103 102 101 100 98 94 91 90
52 51 51 51 52 53 55 57 58 59 61 61 61 61 62 64 65 64 63 61 61 62 63 64 64 64 65 66 67 67 67 67 67 67 67 68 69 70 71 73 74 74 74 73 72 71 70 68 67 66 67 68 69 70 72 75 76 76 77 78 80 81 81 83 86 88 90 90 91 92 95 97 100 103 105 105 104 103 101 99 96 93 90 88 87
53 53 54 55 57 59 59 59 59 60 61 62 62 63 63 64 64 63 61 61 61 62 64 65 66 67 68 68 69 69 68 68 68 67 68 68 69 70 72 73 74 75 76 76 75 74 73 70 67 64 63 64 66 68 72 75 77 78 78 77 78 80 81 81 82 86 89 90 93 95 97 100 102 105 106 104 103 101 97 93 89 86 84 83 83
57 57 59 60 62 62 61 60 60 61 62 62 61 61 62 63 63 63 62 62 63 65 66 67 68 69 69 68 68 67 66 66 66 66 66 67 68 69 70 71 73 74 75 77 77 77 75 71 68 65 64 64 67 69 72 75 78 80 80 78 77 77 80 80 82 85 89 92 95 97 100 101 103 105 105 103 101 97 92 86 83 81 79 78 77
60 62 63 64 64 62 61 60 61 61 61 60 60 60 62 64 64 64 65 66 66 68 69 69 69 69 67 66 65 65 65 65 66 67 68 69 70 71 71 72 73 73 75 76 77 76 74 71 68 67 66 67 69 71 74 76 78 80 81 81 79 78 79 80 82 86 91 94 97 99 101 102 102 103 103 102 97 91 86 82 79 76 73 71 70
62 64 65 65 63 61 61 61 61 61 61 61 62 63 65 65 66 66 66 67 67 67 67 67 66 66 65 64 65 65 67 68 69 70 72 72 73 74 74 74 74 74 74 75 75 74 72 70 68 68 68 69 71 73 74 77 78 79 81 82 81 81 81 80 80 85 92 97 98 99 100 101 101 101 101 98 91 84 80 77 74 71 68 66 64
62 64 64 64 62 61 61 61 61 60 60 61 62 63 64 64 64 64 63 63 63 63 63 62 63 63 63 64 65 67 68 70 72 73 74 74 74 74 74 74 74 73 73 73 73 72 71 70 69 69 70 70 72 74 75 77 78 79 80 82 82 82 83 82 82 84 90 95 97 98 98 99 99 99 96 91 84 77 73 70 69 68 65 62 59
62 64 64 63 61 60 60 60 59 59 58 58 59 59 59 59 59 59 59 59 59 59 59 60 61 61 62 63 65 67 68 70 72 73 74 73 72 72 73 73 73 73 73 73 72 72 72 71 70 70 71 72 72 74 76 77 77 78 79 82 83 83 84 87 88 87 88 92 96 98 99 98 97 95 90 84 76 70 66 65 66 66 64 61 58
63 64 64 63 60 59 59 58 57 56 55 56 56 56 56 55 55 56 56 57 57 58 59 60 61 62 63 64 65 66 66 66 68 70 71 71 71 72 73 73 73 73 73 73 73 73 72 71 70 71 72 73 73 73 76 78 78 78 79 81 83 85 87 90 92 91 89 91 97 101 101 97 92 88 82 74 68 63 62 62 64 65 64 62 60
64 65 64 63 61 60 58 56 54 53 53 53 54 54 55 55 55 55 55 55 56 57 59 60 62 63 64 65 65 64 63 64 65 67 69 70 71 72 72 72 72 72 73 73 73 74 73 72 71 70 72 74 73 73 76 80 80 80 80 81 83 86 90 92 93 92 90 94 100 104 102 95 86 82 74 65 62 61 60 60 62 66 66 63 62
65 66 66 64 62 59 56 54 53 52 52 53 54 55 55 56 55 54 53 53 55 56 58 59 59 60 61 62 62 62 62 63 65 66 68 70 71 71 70 70 71 71 71 71 72 72 72 71 71 70 70 73 75 75 77 80 82 83 82 83 85 89 91 92 92 92 91 96 102 103 101 91 79 72 65 58 58 61 62 62 63 68 70 67 65
67 67 67 65 60 57 54 52 52 52 52 53 55 56 56 57 56 54 54 55 57 58 59 59 59 60 60 60 61 63 64 65 66 68 69 71 72 72 71 71 71 70 70 70 70 70 70 70 69 69 69 72 75 77 77 79 82 83 84 86 87 90 93 92 92 91 92 96 100 100 97 85 69 61 58 56 58 61 63 63 63 67 71 71 71
68 69 68 63 58 56 53 51 51 51 52 53 55 56 58 59 58 56 56 58 60 61 62 63 63 63 63 63 64 66 67 68 69 70 71 73 73 73 72 72 72 71 70 70 70 70 70 70 69 69 70 72 74 77 79 80 82 84 86 88 88 91 94 93 93 92 93 96 98 95 91 76 59 55 58 57 59 59 58 58 59 63 66 68 70
69 70 67 61 58 57 54 51 51 53 54 55 56 58 60 61 61 60 60 61 62 63 65 66 66 66 66 66 67 68 69 71 72 73 74 74 75 75 74 74 73 71 70 70 70 70 70 70 70 71 72 73 75 78 80 81 83 85 88 89 89 92 95 94 95 95 94 96 95 89 82 68 53 53 58 57 56 54 51 52 56 60 64 65 66
69 71 67 61 59 59 55 53 54 56 57 58 59 61 62 64 64 64 63 64 65 66 66 67 67 67 67 68 69 70 71 73 75 76 77 77 77 77 77 76 74 72 71 70 70 71 71 70 71 72 72 73 75 77 79 81 83 86 89 90 90 92 94 94 95 96 95 94 88 80 73 63 52 52 55 56 53 50 48 50 53 56 60 63 64
67 69 66 61 60 60 57 56 58 60 61 62 64 63 64 66 67 66 66 66 66 66 66 66 67 67 68 70 71 72 74 76 78 80 81 80 79 79 78 77 75 73 72 71 71 71 71 71 71 72 72 74 76 77 78 80 82 85 88 90 91 92 94 94 94 95 94 89 80 71 64 58 54 51 53 55 53 48 47 51 52 53 56 60 63
Wind_Direction
274 275 276 276 276 276 276 275 274 274 273 272 272 272 272 271 271 271 270 269 269 268 267 266 265 265 264 264 264 264 264 265 265 266 266 266 266 266 265 265 264 260 257 258 259 262 264 266 269 272 274 278 281 285 287 289 291 291 292 293 295 296 297 298 299 301 301 300 298 296 293 290 287 283 280 278 277 276 274 272 270 270 270 271 270
273 274 275 275 276 276 275 275 274 274 273 273 273 273 272 272 271 271 271 270 269 268 267 266 265 264 263 263 263 262 262 263 264 265 265 265 265 265 264 262 261 260 259 258 259 260 262 264 267 269 272 276 280 283 285 287 288 288 289 291 293 293 294 295 297 299 299 299 297 296 294 292 291 290 287 281 277 276 276 274 271 270 269 269 269
274 274 275 276 276 276 275 275 274 273 273 273 273 273 272 271 271 272 272 271 271 270 268 267 265 264 263 262 262 262 262 262 263 264 264 264 263 262 261 260 260 260 260 259 259 259 260 262 264 267 271 275 278 280 281 283 285 284 285 288 290 290 291 292 294 296 297 297 296 295 294 293 293 294 295 292 284 278 276 276 274 271 269 268 268
275 275 276 276 276 276 276 276 275 274 273 273 272 272 271 271 271 272 272 271 271 270 269 268 267 265 264 262 262 262 262 263 263 264 263 262 261 260 260 260 260 261 260 259 258 257 259 261 264 267 271 274 275 277 279 281 282 282 284 286 287 288 289 290 292 293 294 294 294 294 293 292 292 293 297 300 296 287 278 275 275 274 271 268 268
277 277 277 277 277 277 276 276 275 275 274 273 272 271 271 271 271 271 271 271 270 270 270 269 268 266 264 263 262 262 262 263 263 263 262 261 259 259 259 259 260 261 259 258 257 256 258 260 264 267 269 270 271 274 277 279 280 282 284 285 285 285 286 288 289 290 291 291 291 292 293 292 290 290 293 298 302 300 290 279 275 274 273 271 268
280 280 279 279 278 277 276 276 275 274 274 273 273 272 271 271 271 271 271 271 270 270 270 270 269 268 266 264 262 262 262 263 262 262 261 260 259 260 260 259 261 260 258 257 257 256 258 259 262 265 266 266 268 271 274 276 279 281 283 284 284 284 284 285 287 288 288 289 290 290 291 292 290 289 290 294 298 302 302 293 281 275 273 273 270
282 281 281 280 279 278 277 275 274 273 272 272 272 272 271 271 270 270 270 270 271 271 271 270 270 269 267 265 264 263 263 262 262 261 260 260 260 261 261 260 262 261 257 256 257 257 258 259 261 263 264 264 266 269 272 275 276 278 281 283 283 282 282 284 285 286 287 288 289 289 290 290 291 291 291 292 295 298 301 302 296 285 276 273 272
283 282 281 280 279 278 277 275 274 272 271 271 270 270 270 270 269 269 269 270 270 271 271 271 271 270 268 267 265 264 263 263 261 260 261 261 261 261 261 261 262 263 260 257 257 258 259 260 262 263 263 264 267 269 271 273 274 276 280 281 281 280 281 282 282 283 284 285 286 287 288 288 290 292 293 293 294 295 296 299 303 300 288 276 271
283 282 280 279 278 278 277 276 275 273 272 271 270 270 270 270 270 270 270 270 271 271 272 272 272 271 270 268 266 265 264 263 262 261 261 262 261 261 262 262 262 263 262 260 258 259 260 262 263 264 265 266 267 269 271 272 273 275 278 280 280 280 280 280 280 280 281 282 283 284 286 287 289 291 293 293 294 295 296 297 300 303 301 290 276
283 281 280 279 278 278 278 277 276 275 274 272 272 271 271 271 272 272 272 272 272 273 273 272 272 271 271 269 267 265 265 264 264 263 263 262 261 262 263 263 263 263 264 263 261 260 261 263 264 266 267 268 269 270 271 272 272 275 277 279 279 280 280 280 280 280 281 281 282 283 285 286 288 289 291 293 294 294 295 297 298 300 303 302 289
283 282 281 279 279 280 281 279 277 275 274 273 273 272 272 272 272 272 272 272 272 272 272 272 271 271 271 270 268 266 265 265 265 264 264 263 262 263 264 265 264 265 266 265 264 262 262 264 265 267 269 270 270 270 271 271 272 273 276 277 279 280 281 282 282 282 282 282 282 283 285 286 287 289 290 291 293 294 295 296 298 299 301 304 300
284 282 281 279 279 281 282 281 279 277 275 274 274 274 273 273 272 272 272 271 271 271 271 271 271 271 270 270 269 267 266 265 265 265 264 264 264 265 266 266 266 266 267 266 265 264 264 264 265 267 269 270 270 270 270 271 271 272 274 275 277 279 281 282 283 283 283 283 283 285 285 285 286 288 289 290 291 292 294 295 296 297 299 301 303
283 281 280 279 279 279 281 281 280 278 277 277 276 276 275 274 273 273 272 271 270 271 271 272 272 271 271 270 269 267 267 266 266 265 265 265 266 267 267 268 268 268 268 267 266 266 265 265 266 267 269 270 270 270 270 270 271 271 273 274 276 277 279 281 282 283 283 283 284 285 285 285 285 286 287 288 289 290 291 293 294 295 297 298 301
283 281 280 279 279 279 280 281 280 279 279 278 279 279 277 276 274 273 272 271 271 271 272 272 272 271 270 270 269 268 267 266 266 266 266 266 266 267 267 268 270 270 270 269 268 267 266 266 266 267 268 269 269 269 270 271 272 273 274 275 276 277 279 281 282 283 284 284 284 284 284 285 285 285 286 286 287 287 288 290 292 294 296 297 298
284 282 281 280 280 280 281 281 280 280 279 279 279 280 279 277 275 273 272 272 272 271 271 271 271 270 269 268 268 268 267 266 266 266 266 266 265 266 267 269 271 271 271 271 270 269 268 267 267 267 268 268 268 269 270 271 272 273 274 276 277 278 280 281 282 283 284 284 284 283 283 284 285 286 286 286 286 286 288 289 291 294 295 297 297
286 284 282 281 281 280 279 280 280 279 279 279 279 279 279 278 276 274 272 272 272 271 271 271 270 270 269 268 267 268 268 268 267 266 266 266 266 266 267 269 270 271 272 272 272 271 270 270 269 269 269 269 269 270 270 271 273 275 276 277 278 279 280 281 282 282 282 283 283 283 284 284 285 285 285 285 286 286 287 289 291 294 295 296 296
288 286 285 283 282 281 280 279 279 279 279 278 278 278 278 278 277 274 272 272 271 271 271 270 270 270 269 268 266 267 268 268 268 267 266 266 266 267 267 269 270 272 273 273 273 273 273 273 272 271 270 270 270 270 271 272 273 275 277 278 278 279 279 280 280 280 281 281 282 283 283 284 284 285 285 285 286 286 287 289 292 294 294 295 294
288 287 286 285 284 283 282 281 281 281 280 279 279 278 279 278 277 275 273 272 271 271 271 270 270 270 270 269 267 267 267 268 268 268 267 266 266 267 268 269 270 272 273 273 273 274 274 274 274 273 272 271 271 271 271 272 273 275 277 277 278 278 278 278 278 278 279 280 281 283 283 283 284 284 285 285 285 286 288 290 292 293 294 294 293
288 287 286 285 285 284 284 283 283 283 282 281 280 279 279 278 276 274 272 271 271 271 271 271 271 272 271 271 269 268 268 268 268 268 269 269 269 268 268 269 271 272 273 273 274 274 274 274 274 274 273 272 271 271 271 271 273 274 276 277 277 277 277 276 276 276 277 279 281 282 283 283 284 284 284 283 283 285 288 291 292 293 293 293 291
286 285 285 284 284 284 284 285 284 284 283 282 281 280 278 277 275 272 271 270 271 271 271 272 273 273 273 272 271 270 269 269 269 269 269 270 271 271 271 271 271 273 273 274 274 274 275 275 274 274 274 273 272 271 271 272 273 274 275 276 276 275 275 275 275 276 277 279 281 282 283 284 284 284 282 281 282 284 287 290 291 292 292 291 289
284 284 284 284 284 284 285 285 285 285 284 283 281 280 278 276 274 272 271 271 271 272 272 273 274 274 274 273 272 272 271 271 271 272 271 270 271 272 273 273 273 274 274 273 274 274 275 275 274 273 273 273 272 272 272 272 273 273 274 274 274 274 275 275 277 278 279 281 281 282 282 283 283 282 281 280 282 284 287 288 290 290 290 289 287
282 282 283 283 284 285 285 285 285 285 285 283 282 281 279 277 275 273 272 273 273 274 274 275 276 276 276 275 275 274 274 274 274 274 274 274 274 273 273 274 274 275 275 275 274 274 274 274 274 273 273 272 272 272 272 273 273 272 272 273 274 275 277 278 279 280 281 281 281 281 281 281 281 280 279 280 282 285 287 288 289 289 288 287 284
280 280 281 282 283 283 284 284 284 284 284 284 283 282 280 278 276 275 275 275 276 276 276 277 277 278 278 278 278 277 277 277 277 277 278 278 278 277 276 277 277 276 275 276 276 275 274 273 273 273 273 273 273 273 273 273 272 272 272 273 275 277 279 280 281 281 281 281 281 280 280 280 279 279 279 279 282 284 286 288 288 288 286 284 281
278 278 279 281 281 281 282 282 283 282 282 282 282 282 281 280 279 278 277 278 278 278 278 278 278 279 280 280 280 280 280 280 280 280 280 280 280 280 279 279 279 278 277 276 275 276 276 276 275 274 273 272 272 273 273 273 273 273 274 275 277 278 279 280 281 281 281 280 280 279 279 278 278 278 278 279 281 284 286 287 287 286 285 281 278
275 277 279 279 280 280 280 281 281 281 280 280 280 280 281 281 280 280 280 280 280 280 280 280 281 282 282 283 283 282 282 282 282 282 283 283 282 282 281 280 279 278 277 276 275 274 274 275 276 276 275 274 273 274 274 274 274 275 277 277 278 278 279 279 280 280 280 279 278 278 278 278 278 278 278 279 281 283 284 286 286 285 283 279 275
274 275 277 278 279 279 279 280 280 280 279 278 278 279 280 280 280 281 281 282 282 282 282 283 284 284 283 283 282 282 283 283 284 284 284 284 284 283 282 281 280 279 277 276 275 273 272 272 274 275 276 276 275 275 274 275 276 277 278 278 277 277 277 278 280 280 279 278 277 277 277 277 277 278 278 279 280 281 283 284 284 283 282 278 274
273 274 275 276 277 277 278 279 279 279 278 278 278 279 279 279 280 280 281 282 282 282 283 283 283 282 282 281 281 282 283 284 284 285 285 284 284 283 282 281 280 279 278 276 275 273 273 272 273 273 273 274 275 275 276 276 278 278 279 278 277 276 277 278 279 279 278 277 277 277 277 277 277 277 277 278 280 281 282 283 283 281 280 278 274
273 273 272 272 273 275 276 277 278 278 278 278 278 278 279 279 279 279 280 280 281 281 281 280 280 280 280 281 282 283 283 284 284 284 283 283 282 281 281 280 278 276 275 275 275 275 275 275 275 274 274 273 274 276 277 278 279 279 279 278 278 278 278 279 278 278 277 277 277 276 276 276 276 276 278 279 281 282 283 283 282 281 280 278 275
272 270 270 269 270 271 273 275 276 277 277 277 277 277 278 277 277 278 278 279 279 279 279 279 279 280 281 282 282 283 283 283 283 282 282 281 281 281 280 280 279 278 276 275 276 276 276 276 276 276 276 276 276 276 277 278 279 279 278 277 277 278 278 278 277 276 276 276 276 276 276 276 277 278 280 282 283 284 285 284 283 283 282 280 277
273 271 269 269 269 269 270 272 273 274 275 276 276 276 276 276 277 277 277 278 278 278 279 279 280 281 281 282 282 282 283 282 282 282 281 281 282 282 282 282 281 281 280 279 278 277 276 275 276 277 276 277 277 277 278 278 279 278 278 277 277 277 276 276 275 274 274 274 275 275 276 276 277 279 282 284 285 286 287 287 286 285 284 281 278
275 273 271 271 271 271 270 270 271 272 274 275 275 276 277 277 277 277 277 277 278 279 280 280 281 282 282 282 282 282 282 282 282 282 283 283 283 283 283 283 282 281 281 280 278 277 276 275 276 277 277 277 277 277 277 278 278 277 278 277 277 276 275 274 274 273 274 274 275 276 277 278 278 281 283 285 286 287 287 287 287 286 285 282 278
275 274 273 273 273 273 272 271 271 271 273 274 275 277 277 278 278 278 278 279 279 280 281 281 282 282 283 283 283 283 283 283 284 284 284 284 283 283 283 283 282 281 280 279 278 276 276 277 276 277 278 278 278 278 277 277 278 278 278 278 277 276 275 275 275 275 276 276 277 279 280 281 282 284 286 286 286 287 287 287 286 285 284 282 278
273 273 273 273 273 272 272 272 272 272 273 275 276 278 278 279 279 279 279 280 280 281 281 282 283 283 284 284 284 284 284 284 284 285 284 284 283 283 282 282 282 282 281 280 279 277 277 279 279 278 278 278 278 278 278 278 278 278 278 278 277 277 276 276 276 277 278 279 280 282 283 284 286 286 287 287 287 287 287 287 286 286 284 280 276
271 272 272 272 272 272 273 274 275 276 276 278 278 279 279 279 279 279 279 279 280 281 282 283 284 284 285 285 285 285 285 285 285 285 284 283 282 282 282 282 282 283 283 282 282 281 279 279 280 279 279 279 279 278 278 278 278 278 278 278 277 278 278 279 279 279 280 282 283 285 286 287 288 288 288 288 288 289 289 288 287 286 284 279 274
272 271 270 271 272 274 276 278 279 280 280 280 280 280 280 281 281 281 281 282 282 283 283 283 284 284 284 284 285 285 286 286 286 285 284 282 282 282 282 283 283 283 283 283 284 283 282 281 281 280 279 279 280 279 279 279 278 278 278 278 279 281 282 282 283 284 284 285 286 287 288 290 290 291 291 291 291 291 291 290 288 286 283 278 272
271 270 270 272 274 276 279 280 281 281 281 281 281 282 283 284 284 284 284 284 284 284 284 283 283 283 283 284 285 285 286 285 285 284 283 282 282 283 283 283 283 283 283 283 284 284 284 283 282 281 280 280 280 281 280 279 279 280 281 282 284 285 286 287 288 288 288 288 289 290 291 292 293 293 294 294 294 294 293 291 289 286 281 275 269
269 270 272 274 276 279 281 281 281 280 280 280 281 283 284 284 284 284 284 284 284 283 283 282 283 283 284 284 285 285 285 285 286 285 285 285 285 285 285 285 285 284 283 283 283 283 283 283 282 282 282 281 282 283 283 282 282 283 285 287 288 289 289 290 291 291 291 291 293 294 294 295 296 296 297 297 297 296 294 291 288 283 278 272 266
269 272 275 277 279 281 281 281 280 279 279 281 282 283 283 284 284 284 283 283 282 282 282 283 284 284 285 286 286 287 287 287 287 287 288 288 288 288 287 287 287 286 285 284 283 283 284 283 282 282 282 283 284 286 287 286 286 287 287 288 290 291 291 291 292 293 294 295 296 296 297 297 299 299 300 300 299 297 294 290 286 281 276 270 264
271 274 276 278 280 280 279 278 278 279 280 281 282 283 283 283 282 282 282 281 281 282 283 284 285 286 287 287 288 288 288 288 288 289 289 290 290 290 290 289 289 288 287 286 285 284 284 283 282 282 283 285 287 288 289 289 290 290 289 289 290 291 291 293 295 296 296 297 298 299 300 301 301 302 302 301 300 297 293 288 284 279 274 268 262
272 274 275 276 278 278 278 278 279 280 280 281 281 282 282 282 282 282 282 282 283 283 284 286 287 287 288 288 288 288 288 289 289 290 291 292 293 293 292 292 291 290 289 288 287 286 285 284 283 283 285 287 288 289 289 289 290 290 290 291 291 292 293 295 297 298 298 299 300 301 302 303 304 304 303 301 299 296 291 287 282 277 272 266 261
272 273 274 275 277 278 278 279 280 280 280 281 282 282 283 283 283 283 283 284 285 285 286 287 288 288 288 288 288 289 289 290 291 291 292 293 294 294 293 292 291 290 290 289 288 288 287 286 285 285 286 286 287 287 288 289 289 290 291 292 292 293 294 296 299 300 301 302 303 304 305 306 306 305 303 300 298 293 288 284 279 275 270 264 260
273 273 273 275 277 278 279 279 279 280 281 282 283 283 283 283 284 284 285 285 286 287 287 288 288 288 288 288 289 290 291 292 292 292 292 292 293 292 292 290 289 289 288 288 288 288 287 287 286 286 285 286 286 287 288 289 290 291 292 292 293 295 296 298 301 302 303 303 305 306 307 307 306 304 301 298 294 289 283 278 274 270 267 263 259
273 273 273 274 276 278 279 279 280 282 283 283 282 282 282 282 283 284 285 286 286 287 287 288 289 290 290 292 294 295 296 295 294 293 292 292 291 290 290 289 288 287 287 286 286 286 286 285 286 286 286 286 287 289 290 290 291 292 293 294 295 297 299 302 304 306 305 305 306 308 308 308 305 302 299 295 289 283 277 272 269 267 265 262 258
272 272 272 274 276 278 278 280 281 281 281 280 280 280 281 281 282 283 284 285 286 287 289 290 291 292 293 294 297 301 301 299 297 294 292 292 291 291 291 290 289 288 287 287 287 286 286 286 287 288 289 289 291 292 293 293 294 294 295 297 299 300 303 305 306 308 308 307 308 309 309 308 303 298 295 290 283 276 271 267 266 265 263 260 256
272 272 273 274 276 277 278 279 280 279 278 278 278 279 279 279 281 281 283 285 288 289 291 292 293 293 293 295 299 304 305 302 299 296 294 294 294 294 294 292 292 292 291 291 291 291 291 291 291 292 294 294 295 296 296 296 297 297 298 299 300 302 304 306 307 309 310 310 310 310 309 307 300 295 292 284 275 271 267 264 264 263 262 259 256
273 273 273 273 275 276 277 278 278 278 278 277 277 277 278 278 279 279 282 286 289 291 293 294 295 296 296 298 302 305 306 304 301 298 297 296 296 296 296 295 294 294 294 295 295 295 295 295 295 296 296 296 297 297 298 298 298 299 299 301 302 304 304 305 307 310 311 311 310 309 309 306 298 290 287 279 270 268 267 265 263 263 261 259 256
273 273 273 273 275 275 275 276 277 278 278 277 276 277 277 277 276 277 281 285 288 291 293 294 296 298 300 302 304 305 306 306 304 301 299 298 297 297 296 295 294 293 293 294 294 295 295 295 295 295 295 296 297 298 299 299 299 299 300 302 303 303 303 305 307 310 312 311 309 307 307 305 295 285 280 274 269 269 268 267 265 263 262 259 256
274 273 273 274 274 273 273 275 278 278 279 279 278 278 277 276 274 275 280 285 288 290 292 294 296 299 301 303 304 305 306 307 306 304 301 299 297 296 296 295 294 293 293 293 293 294 294 294 294 294 295 297 298 300 301 301 300 299 299 301 303 302 303 305 308 311 312 311 309 306 304 301 291 279 277 275 273 272 270 269 268 265 263 261 257
274 273 273 274 273 271 272 275 277 278 280 281 280 279 278 276 274 274 279 285 288 290 291 294 296 299 301 303 304 305 307 308 308 306 303 300 297 295 295 294 294 294 294 294 295 295 295 295 295 295 296 298 300 302 302 301 299 299 299 301 302 302 304 307 309 312 312 311 309 305 300 296 285 276 278 278 277 276 274 273 271 267 264 262 259
276 275 275 275 273 270 272 275 276 278 280 281 281 279 277 275 273 274 279 284 287 289 291 293 295 298 301 303 304 305 307 309 309 308 306 303 299 295 294 294 294 294 294 295 296 296 296 295 294 295 296 299 301 302 301 300 299 299 300 302 303 303 305 308 310 311 311 311 308 301 295 292 284 281 283 281 278 278 279 277 273 269 266 263 260
277 278 278 277 273 271 272 274 275 277 279 280 281 280 277 275 274 275 279 283 286 288 290 292 294 297 300 302 303 305 308 310 311 311 309 306 301 297 294 294 294 294 294 295 296 296 296 295 294 295 296 298 300 301 300 300 300 300 301 302 304 305 307 309 310 310 310 310 306 297 290 287 285 288 289 284 279 277 279 280 276 270 267 263 259
Height
5822 5822 5822 5821 5821 5821 5821 5821 5821 5821 5821 5821 5822 5822 5822 5822 5822 5822 5822 5822 5822 5823 5823 5823 5823 5823 5823 5824 5824 5824 5824 5824 5824 5824 5824 5824 5824 5824 5825 5825 5825 5824 5823 5824 5824 5824 5824 5824 5824 5824 5823 5823 5823 5822 5822 5822 5822 5821 5821 5821 5821 5821 5821 5821 5821 5821 5822 5822 5822 5822 5821 5821 5820 5819 5819 5819 5819 5819 5820 5821 5822 5822 5823 5824 5825
5819 5818 5818 5818 5817 5817 5817 5816 5816 5817 5817 5817 5817 5818 5818 5818 5818 5818 5818 5818 5818 5818 5818 5819 5819 5819 5819 5819 5819 5820 5820 5820 5820 5820 5820 5820 5820 5820 5820 5820 5820 5819 5819 5819 5820 5820 5820 5820 5820 5819 5819 5819 5819 5818 5818 5817 5817 5817 5817 5816 5817 5817 5817 5817 5817 5816 5816 5817 5817 5817 5816 5816 5815 5814 5814 5813 5813 5814 5814 5815 5816 5817 5818 5819 5820
5815 5814 5814 5814 5813 5813 5812 5812 5812 5812 5812 5812 5813 5813 5813 5814 5814 5814 5814 5814 5814 5814 5814 5814 5814 5814 5814 5814 5814 5815 5815 5815 5816 5816 5816 5815 5815 5815 5815 5815 5815 5815 5814 5815 5815 5815 5815 5815 5815 5815 5815 5815 5814 5814 5813 5813 5812 5812 5812 5811 5811 5811 5811 5811 5811 5811 5811 5812 5812 5813 5812 5811 5810 5810 5809 5808 5808 5808 5809 5809 5810 5811 5812 5813 5815
5810 5810 5810 5810 5809 5809 5808 5808 5808 5808 5808 5808 5808 5808 5808 5809 5809 5809 5809 5809 5809 5809 5809 5809 5809 5810 5810 5810 5810 5810 5810 5810 5811 5811 5811 5811 5811 5810 5810 5810 5810 5810 5810 5810 5810 5810 5810 5810 5810 5810 5810 5810 5810 5809 5808 5808 5807 5807 5806 5806 5806 5806 5806 5805 5805 5805 5805 5806 5807 5807 5807 5807 5806 5806 5805 5804 5803 5803 5803 5803 5804 5805 5806 5807 5808
5806 5806 5806 5806 5805 5805 5804 5804 5804 5803 5803 5803 5803 5804 5804 5804 5804 5804 5804 5804 5804 5804 5804 5804 5804 5805 5805 5805 5805 5805 5805 5805 5806 5806 5806 5806 5806 5806 5806 5806 5806 5805 5805 5805 5805 5805 5805 5805 5805 5805 5805 5805 5805 5804 5804 5803 5802 5802 5801 5801 5800 5800 5800 5800 5800 5799 5799 5800 5801 5801 5801 5801 5801 5801 5801 5800 5799 5798 5798 5798 5798 5799 5800 5801 5802
5802 5802 5802 5801 5801 5800 5800 5800 5800 5799 5799 5799 5799 5799 5799 5799 5799 5798 5798 5799 5799 5799 5799 5799 5799 5799 5799 5799 5800 5799 5800 5800 5801 5801 5801 5801 5801 5801 5801 5801 5801 5801 5800 5800 5800 5800 5800 5800 5800 5800 5800 5800 5800 5799 5799 5798 5797 5797 5796 5796 5795 5795 5794 5794 5794 5793 5793 5794 5794 5794 5794 5795 5795 5795 5795 5795 5795 5794 5793 5793 5793 5793 5794 5795 5796
5798 5798 5797 5797 5796 5796 5796 5796 5795 5795 5795 5795 5795 5794 5794 5794 5794 5793 5793 5793 5793 5793 5793 5793 5793 5794 5794 5794 5794 5794 5794 5795 5795 5795 5796 5796 5796 5796 5796 5796 5796 5796 5796 5796 5795 5795 5795 5795 5795 5795 5795 5795 5794 5794 5794 5793 5792 5792 5791 5791 5790 5790 5789 5788 5788 5788 5788 5788 5788 5788 5788 5789 5789 5789 5789 5790 5790 5789 5789 5788 5788 5788 5788 5789 5790
5794 5793 5793 5792 5792 5791 5791 5791 5791 5791 5790 5790 5790 5790 5789 5789 5789 5788 5788 5788 5788 5788 5788 5788 5788 5788 5788 5788 5789 5789 5789 5789 5790 5790 5790 5791 5791 5791 5791 5791 5791 5791 5791 5791 5790 5790 5790 5790 5790 5790 5789 5789 5789 5789 5788 5788 5787 5786 5786 5785 5785 5784 5783 5783 5782 5782 5781 5781 5781 5782 5782 5782 5783 5782 5782 5783 5783 5783 5783 5783 5783 5783 5783 5783 5783
5789 5789 5788 5787 5787 5787 5787 5786 5786 5786 5786 5785 5785 5785 5784 5784 5784 5784 5783 5783 5783 5783 5783 5783 5783 5783 5782 5783 5783 5783 5784 5784 5784 5785 5785 5785 5785 5785 5786 5785 5786 5786 5786 5786 5785 5785 5785 5785 5784 5784 5784 5784 5784 5783 5783 5782 5782 5781 5780 5779 5779 5778 5777 5777 5776 5775 5775 5775 5775 5775 5775 5775 5776 5776 5776 5776 5776 5777 5777 5777 5777 5777 5777 5777 5777
5785 5784 5783 5783 5783 5782 5782 5782 5781 5781 5781 5780 5780 5780 5779 5779 5779 5778 5778 5778 5778 5778 5777 5777 5777 5777 5777 5777 5777 5778 5778 5779 5779 5779 5779 5780 5780 5780 5780 5780 5780 5780 5781 5780 5780 5779 5779 5779 5779 5778 5778 5778 5777 5777 5777 5777 5776 5775 5774 5773 5772 5771 5771 5770 5769 5769 5769 5769 5769 5769 5768 5768 5769 5769 5769 5769 5769 5770 5770 5770 5770 5770 5770 5771 5771
5780 5779 5779 5778 5778 5777 5777 5777 5776 5776 5775 5775 5775 5774 5774 5774 5773 5773 5773 5772 5772 5772 5772 5771 5771 5771 5770 5771 5771 5772 5773 5773 5773 5773 5774 5774 5774 5774 5774 5774 5774 5775 5775 5774 5774 5774 5773 5773 5773 5772 5772 5772 5771 5771 5770 5770 5769 5768 5767 5766 5766 5765 5764 5764 5763 5762 5762 5762 5762 5762 5762 5762 5761 5762 5762 5763 5763 5763 5763 5763 5764 5764 5764 5764 5764
5775 5774 5774 5773 5773 5772 5772 5772 5771 5771 5770 5770 5769 5769 5768 5768 5768 5767 5767 5767 5767 5767 5766 5766 5765 5765 5765 5765 5765 5766 5767 5767 5767 5768 5769 5769 5768 5769 5769 5769 5769 5769 5768 5768 5767 5767 5767 5766 5766 5766 5765 5765 5764 5764 5764 5763 5762 5761 5760 5760 5759 5758 5757 5757 5756 5756 5755 5755 5755 5754 5754 5755 5754 5754 5754 5755 5755 5756 5756 5756 5757 5757 5757 5757 5757
5770 5769 5768 5768 5767 5767 5766 5766 5766 5765 5765 5765 5764 5763 5763 5762 5762 5761 5761 5761 5761 5761 5761 5760 5760 5759 5759 5759 5759 5760 5761 5762 5762 5763 5764 5763 5763 5763 5763 5763 5763 5762 5762 5761 5761 5760 5760 5759 5759 5759 5758 5758 5757 5757 5756 5756 5755 5754 5753 5752 5752 5751 5750 5750 5749 5749 5748 5748 5748 5748 5747 5747 5747 5747 5746 5747 5747 5748 5749 5749 5749 5750 5750 5750 5750
5764 5764 5763 5762 5762 5761 5761 5760 5760 5760 5759 5759 5758 5758 5757 5757 5756 5755 5754 5754 5754 5754 5754 5754 5754 5754 5754 5753 5753 5754 5755 5756 5756 5757 5758 5757 5757 5757 5757 5757 5756 5756 5755 5754 5754 5753 5752 5752 5752 5751 5751 5750 5750 5749 5749 5748 5747 5746 5745 5744 5744 5743 5743 5743 5742 5741 5741 5740 5740 5740 5740 5739 5739 5739 5739 5739 5739 5739 5740 5741 5742 5742 5743 5743 5742
5759 5759 5758 5757 5756 5756 5756 5755 5754 5754 5753 5753 5752 5752 5751 5751 5750 5749 5748 5747 5747 5748 5748 5748 5748 5748 5749 5748 5747 5747 5748 5750 5750 5751 5751 5751 5751 5751 5750 5750 5750 5749 5748 5747 5747 5746 5745 5745 5744 5743 5743 5742 5742 5741 5741 5740 5739 5738 5737 5736 5735 5735 5735 5735 5734 5734 5733 5732 5732 5731 5731 5731 5731 5731 5731 5731 5731 5731 5731 5732 5733 5734 5734 5735 5735
5754 5753 5753 5752 5751 5751 5750 5749 5748 5748 5747 5747 5746 5746 5745 5745 5744 5743 5742 5741 5741 5741 5741 5742 5742 5742 5742 5743 5742 5741 5741 5743 5744 5745 5746 5744 5744 5744 5744 5743 5743 5741 5740 5740 5739 5738 5737 5737 5736 5735 5734 5734 5733 5733 5732 5731 5731 5730 5729 5728 5727 5727 5727 5726 5726 5725 5725 5724 5723 5722 5722 5722 5722 5722 5722 5722 5722 5722 5722 5723 5724 5725 5726 5727 5727
5748 5747 5747 5746 5746 5745 5744 5743 5742 5741 5741 5740 5740 5739 5739 5738 5737 5736 5735 5735 5734 5734 5735 5736 5736 5736 5736 5736 5737 5736 5735 5736 5737 5738 5739 5739 5737 5737 5737 5737 5736 5734 5733 5732 5731 5730 5730 5728 5727 5727 5726 5724 5724 5724 5723 5723 5722 5721 5721 5720 5719 5719 5718 5718 5717 5717 5716 5715 5714 5713 5713 5713 5713 5713 5713 5713 5713 5713 5713 5713 5714 5716 5717 5718 5719
5742 5741 5740 5740 5739 5738 5738 5737 5736 5735 5735 5734 5733 5733 5732 5732 5731 5730 5729 5729 5728 5728 5728 5729 5730 5730 5730 5730 5731 5731 5730 5730 5731 5731 5731 5732 5731 5730 5730 5730 5729 5727 5725 5724 5723 5723 5722 5720 5719 5717 5716 5716 5715 5715 5715 5714 5713 5713 5712 5711 5711 5710 5710 5709 5709 5708 5707 5706 5705 5704 5703 5703 5703 5704 5704 5704 5704 5704 5704 5703 5704 5705 5707 5709 5711
5735 5734 5733 5733 5732 5732 5731 5731 5730 5729 5728 5727 5727 5726 5726 5725 5724 5724 5723 5722 5722 5722 5722 5722 5724 5724 5724 5725 5725 5725 5725 5724 5725 5725 5725 5724 5723 5724 5724 5724 5722 5720 5718 5717 5716 5716 5713 5712 5711 5709 5707 5707 5707 5706 5706 5705 5704 5704 5703 5702 5702 5702 5701 5700 5699 5699 5698 5697 5695 5694 5694 5694 5694 5695 5695 5695 5695 5695 5695 5694 5694 5695 5697 5699 5701
5729 5728 5727 5726 5726 5725 5725 5724 5724 5723 5722 5721 5720 5719 5719 5719 5718 5717 5717 5716 5716 5716 5716 5715 5716 5717 5718 5718 5718 5719 5719 5719 5719 5720 5720 5719 5716 5715 5716 5717 5716 5713 5711 5709 5709 5708 5706 5703 5702 5700 5699 5698 5698 5697 5697 5696 5695 5694 5693 5693 5692 5692 5691 5690 5690 5689 5688 5687 5686 5685 5685 5685 5685 5685 5685 5686 5686 5686 5686 5685 5685 5685 5686 5688 5690
5722 5721 5720 5719 5719 5719 5718 5718 5717 5717 5716 5715 5714 5713 5713 5712 5712 5711 5710 5710 5710 5709 5709 5709 5709 5710 5711 5711 5712 5712 5712 5713 5713 5713 5713 5715 5713 5709 5706 5708 5708 5705 5703 5704 5703 5700 5698 5696 5693 5692 5691 5690 5688 5688 5688 5686 5685 5685 5684 5683 5683 5682 5681 5680 5680 5679 5678 5677 5676 5676 5676 5676 5676 5676 5676 5676 5676 5676 5676 5676 5676 5676 5677 5677 5679
5716 5714 5713 5712 5712 5712 5712 5712 5711 5710 5710 5709 5708 5707 5707 5706 5705 5705 5704 5703 5703 5702 5702 5702 5702 5703 5703 5704 5704 5705 5705 5705 5706 5706 5706 5707 5709 5707 5703 5702 5702 5697 5692 5693 5696 5694 5690 5687 5685 5684 5683 5682 5680 5679 5678 5676 5675 5675 5674 5673 5673 5672 5671 5670 5670 5669 5668 5667 5666 5666 5665 5666 5666 5666 5666 5666 5666 5665 5665 5666 5667 5667 5668 5668 5668
5709 5708 5706 5705 5706 5706 5706 5705 5705 5704 5703 5702 5702 5701 5700 5700 5699 5698 5697 5697 5696 5696 5695 5695 5695 5695 5696 5696 5696 5697 5697 5697 5696 5697 5698 5698 5699 5700 5697 5697 5698 5694 5687 5684 5685 5683 5680 5678 5678 5678 5676 5673 5672 5671 5669 5667 5665 5665 5664 5663 5662 5661 5660 5660 5659 5658 5658 5657 5656 5655 5655 5655 5656 5655 5656 5656 5655 5655 5655 5655 5657 5658 5659 5659 5659
5704 5702 5700 5699 5698 5698 5699 5698 5698 5697 5696 5696 5695 5695 5694 5693 5692 5692 5691 5690 5689 5689 5688 5688 5688 5688 5688 5688 5688 5688 5689 5688 5687 5687 5687 5688 5689 5690 5689 5688 5690 5688 5684 5681 5678 5674 5669 5667 5668 5670 5668 5665 5663 5662 5661 5658 5656 5654 5653 5652 5651 5651 5650 5649 5649 5648 5647 5646 5645 5644 5644 5644 5645 5645 5645 5645 5644 5644 5643 5644 5645 5648 5650 5650 5650
5698 5697 5695 5693 5691 5690 5691 5691 5691 5690 5690 5689 5688 5688 5687 5686 5686 5685 5684 5684 5683 5682 5682 5682 5681 5681 5681 5680 5680 5679 5679 5679 5678 5677 5677 5677 5678 5680 5680 5679 5680 5680 5676 5674 5673 5669 5663 5659 5658 5657 5656 5654 5654 5653 5651 5649 5648 5645 5644 5643 5641 5640 5639 5638 5638 5637 5636 5635 5634 5634 5633 5634 5634 5634 5634 5633 5633 5633 5632 5633 5634 5635 5638 5640 5640
5693 5691 5689 5687 5685 5684 5683 5683 5684 5683 5683 5682 5681 5681 5680 5679 5679 5678 5678 5677 5676 5675 5674 5674 5673 5673 5672 5672 5671 5670 5670 5669 5668 5667 5667 5667 5667 5668 5670 5670 5670 5670 5668 5666 5665 5661 5658 5654 5651 5649 5645 5643 5642 5642 5641 5639 5638 5636 5635 5634 5632 5630 5629 5628 5627 5627 5625 5624 5624 5623 5623 5623 5623 5622 5622 5621 5621 5621 5621 5621 5622 5623 5625 5627 5629
5687 5686 5684 5682 5680 5678 5677 5676 5676 5676 5675 5675 5674 5673 5673 5672 5671 5671 5670 5669 5668 5667 5666 5666 5665 5665 5664 5663 5662 5661 5661 5660 5659 5658 5657 5657 5657 5656 5658 5659 5660 5660 5658 5656 5655 5651 5649 5646 5645 5643 5638 5635 5634 5632 5631 5630 5628 5626 5625 5624 5623 5621 5619 5617 5616 5615 5614 5614 5613 5613 5613 5612 5612 5611 5610 5609 5609 5609 5608 5608 5609 5610 5612 5614 5616
5680 5679 5678 5676 5674 5672 5671 5670 5669 5668 5668 5667 5666 5666 5665 5664 5664 5663 5663 5662 5660 5659 5658 5657 5657 5656 5655 5654 5653 5652 5652 5651 5649 5649 5647 5647 5646 5645 5645 5646 5648 5650 5649 5648 5646 5643 5640 5636 5635 5634 5630 5628 5627 5623 5621 5620 5618 5616 5615 5613 5611 5610 5608 5607 5605 5604 5603 5603 5603 5603 5602 5601 5600 5599 5598 5597 5597 5596 5596 5596 5596 5597 5599 5601 5603
5672 5672 5671 5669 5668 5667 5666 5664 5662 5661 5660 5659 5658 5658 5657 5657 5656 5656 5655 5654 5652 5651 5650 5649 5648 5647 5646 5645 5644 5642 5642 5641 5639 5638 5637 5636 5635 5634 5633 5632 5632 5635 5637 5640 5641 5638 5633 5627 5624 5623 5620 5617 5617 5614 5611 5609 5607 5606 5605 5602 5600 5599 5597 5596 5594 5593 5592 5592 5592 5592 5591 5590 5589 5587 5586 5585 5584 5583 5583 5582 5582 5583 5585 5587 5588
5664 5664 5663 5662 5661 5661 5660 5658 5656 5655 5653 5652 5651 5650 5650 5649 5649 5648 5647 5646 5644 5643 5642 5641 5639 5638 5636 5635 5634 5632 5631 5630 5628 5627 5626 5624 5623 5622 5621 5620 5619 5620 5621 5625 5631 5632 5626 5619 5615 5612 5609 5608 5606 5604 5601 5599 5597 5595 5593 5591 5590 5588 5587 5585 5583 5582 5581 5581 5581 5581 5580 5579 5578 5576 5574 5572 5570 5569 5568 5568 5568 5568 5570 5571 5573
5656 5655 5654 5654 5653 5653 5653 5651 5650 5648 5646 5645 5644 5643 5642 5641 5641 5640 5639 5638 5636 5634 5633 5631 5630 5628 5626 5624 5623 5622 5621 5619 5617 5616 5614 5613 5613 5611 5610 5608 5607 5607 5607 5608 5615 5621 5616 5610 5607 5601 5598 5598 5596 5594 5592 5589 5587 5585 5582 5581 5579 5577 5576 5574 5573 5571 5571 5570 5570 5569 5569 5568 5567 5564 5561 5559 5557 5555 5554 5553 5552 5552 5553 5553 5555
5648 5647 5646 5645 5645 5645 5644 5643 5642 5641 5639 5638 5637 5636 5635 5634 5633 5632 5631 5629 5627 5625 5624 5622 5620 5618 5616 5614 5613 5612 5610 5608 5607 5605 5604 5603 5602 5600 5599 5598 5595 5594 5594 5593 5598 5607 5605 5599 5596 5591 5587 5587 5585 5582 5580 5579 5575 5573 5571 5570 5567 5565 5564 5564 5562 5560 5559 5558 5558 5557 5556 5554 5552 5550 5547 5545 5543 5541 5540 5539 5538 5536 5536 5536 5536
5640 5639 5637 5637 5636 5636 5635 5635 5634 5633 5632 5630 5629 5628 5627 5626 5625 5624 5622 5620 5618 5616 5614 5612 5611 5608 5606 5604 5602 5601 5600 5598 5597 5595 5594 5592 5592 5591 5589 5588 5585 5582 5581 5581 5582 5590 5594 5588 5584 5580 5575 5574 5574 5570 5567 5567 5564 5561 5559 5558 5555 5553 5551 5551 5551 5549 5546 5545 5545 5543 5540 5539 5536 5534 5532 5530 5528 5526 5524 5522 5521 5519 5519 5518 5518
5632 5631 5630 5629 5628 5628 5628 5627 5626 5625 5623 5622 5621 5620 5619 5618 5617 5615 5614 5611 5609 5607 5605 5603 5601 5599 5597 5594 5593 5591 5590 5588 5587 5585 5584 5582 5581 5581 5578 5576 5575 5571 5569 5569 5568 5572 5580 5579 5574 5570 5565 5561 5562 5560 5555 5554 5552 5549 5548 5545 5542 5541 5539 5537 5537 5536 5533 5531 5530 5528 5524 5522 5520 5517 5515 5513 5510 5508 5505 5503 5501 5500 5499 5499 5500
5624 5623 5622 5622 5621 5620 5620 5618 5617 5616 5615 5614 5613 5612 5611 5609 5608 5607 5605 5603 5600 5598 5596 5594 5592 5590 5587 5585 5583 5582 5580 5579 5577 5575 5574 5573 5571 5570 5568 5565 5563 5561 5557 5556 5556 5556 5562 5567 5564 5559 5556 5551 5548 5548 5544 5541 5538 5537 5536 5533 5530 5528 5527 5524 5522 5521 5519 5516 5516 5514 5510 5506 5503 5499 5496 5493 5490 5487 5484 5481 5479 5478 5478 5478 5479
5617 5616 5615 5614 5613 5612 5611 5610 5609 5607 5606 5605 5604 5603 5602 5600 5599 5598 5596 5594 5591 5589 5586 5584 5582 5580 5578 5576 5574 5573 5571 5569 5568 5566 5564 5562 5560 5559 5557 5554 5551 5549 5547 5544 5544 5543 5546 5552 5552 5548 5546 5542 5537 5535 5531 5528 5526 5524 5522 5520 5518 5517 5514 5510 5507 5505 5504 5502 5501 5500 5496 5491 5486 5481 5477 5473 5470 5467 5463 5460 5457 5456 5455 5455 5456
5609 5608 5607 5606 5605 5604 5603 5602 5600 5599 5598 5597 5595 5594 5592 5591 5590 5588 5587 5585 5582 5579 5577 5574 5572 5570 5568 5566 5565 5563 5562 5559 5557 5556 5554 5552 5551 5549 5546 5544 5541 5538 5536 5533 5532 5531 5532 5536 5539 5537 5534 5531 5527 5523 5517 5513 5513 5512 5510 5507 5504 5503 5503 5499 5493 5489 5488 5487 5485 5483 5479 5474 5467 5461 5457 5453 5449 5446 5442 5439 5436 5434 5432 5433 5433
5601 5600 5599 5597 5596 5595 5594 5593 5592 5591 5589 5588 5586 5585 5583 5582 5581 5579 5577 5575 5572 5569 5567 5565 5563 5561 5559 5557 5555 5553 5552 5550 5548 5546 5544 5542 5541 5539 5536 5534 5531 5528 5526 5523 5520 5519 5519 5521 5523 5524 5522 5519 5516 5511 5504 5499 5497 5496 5497 5498 5495 5490 5488 5488 5484 5477 5472 5470 5468 5465 5461 5456 5448 5441 5437 5434 5429 5425 5422 5418 5415 5413 5411 5410 5411
5592 5591 5590 5589 5587 5587 5586 5585 5584 5582 5580 5579 5577 5575 5574 5573 5571 5570 5568 5566 5563 5560 5557 5555 5553 5551 5549 5547 5546 5544 5542 5541 5539 5537 5535 5533 5531 5528 5525 5523 5520 5517 5515 5512 5510 5508 5507 5508 5509 5510 5510 5507 5503 5499 5493 5488 5484 5480 5478 5483 5487 5482 5475 5474 5472 5464 5458 5455 5451 5446 5441 5436 5430 5423 5417 5414 5410 5405 5401 5398 5395 5393 5392 5390 5390
5584 5583 5581 5580 5579 5578 5577 5576 5574 5573 5571 5569 5568 5566 5565 5564 5562 5561 5559 5556 5554 5551 5548 5546 5544 5542 5540 5538 5537 5536 5534 5532 5531 5528 5526 5524 5521 5518 5515 5512 5510 5507 5504 5501 5499 5497 5496 5496 5497 5496 5497 5495 5491 5487 5482 5477 5474 5469 5463 5463 5469 5470 5465 5463 5459 5448 5439 5438 5435 5430 5423 5416 5411 5405 5398 5394 5393 5387 5381 5379 5376 5374 5374 5372 5372
5574 5573 5572 5571 5570 5569 5568 5567 5565 5563 5562 5560 5559 5557 5556 5555 5553 5552 5550 5547 5545 5543 5540 5538 5536 5533 5532 5530 5528 5527 5525 5523 5521 5519 5516 5514 5511 5508 5505 5502 5499 5496 5493 5491 5488 5486 5485 5485 5486 5484 5484 5484 5480 5475 5473 5467 5462 5459 5455 5450 5450 5452 5449 5451 5452 5440 5423 5416 5417 5415 5410 5401 5393 5388 5380 5375 5374 5370 5364 5362 5359 5358 5358 5357 5357
5564 5563 5562 5561 5561 5560 5558 5557 5555 5554 5553 5551 5550 5548 5547 5546 5544 5542 5541 5539 5536 5534 5532 5530 5528 5525 5523 5522 5520 5518 5516 5514 5512 5509 5507 5504 5501 5499 5495 5493 5489 5486 5483 5480 5477 5475 5474 5474 5474 5473 5471 5471 5468 5463 5460 5457 5450 5447 5444 5438 5436 5436 5433 5432 5439 5436 5415 5398 5396 5397 5396 5389 5377 5370 5365 5357 5354 5353 5348 5347 5345 5342 5343 5345 5346
5554 5553 5552 5552 5551 5550 5548 5547 5546 5544 5543 5541 5540 5539 5538 5537 5536 5534 5532 5531 5528 5526 5524 5522 5519 5517 5515 5513 5511 5509 5506 5504 5502 5499 5496 5494 5491 5488 5485 5482 5480 5476 5472 5469 5467 5464 5463 5463 5463 5461 5458 5458 5456 5451 5446 5443 5440 5437 5432 5426 5422 5420 5417 5413 5416 5420 5408 5386 5378 5378 5378 5373 5360 5350 5348 5342 5337 5337 5334 5333 5333 5330 5331 5333 5335
5544 5543 5543 5542 5541 5540 5539 5537 5536 5535 5533 5532 5531 5531 5530 5528 5528 5526 5524 5522 5520 5518 5516 5513 5511 5508 5506 5504 5502 5499 5496 5493 5491 5489 5486 5484 5480 5477 5475 5471 5468 5465 5461 5457 5455 5452 5452 5452 5451 5449 5444 5442 5442 5439 5432 5426 5425 5425 5419 5414 5408 5401 5400 5396 5393 5397 5393 5374 5362 5359 5359 5356 5342 5331 5331 5328 5322 5323 5322 5322 5322 5319 5319 5322 5324
5535 5534 5533 5533 5531 5530 5529 5528 5526 5525 5524 5523 5523 5522 5521 5520 5519 5518 5516 5514 5511 5509 5507 5505 5502 5500 5497 5495 5492 5490 5486 5483 5481 5478 5476 5474 5470 5468 5465 5461 5458 5454 5450 5447 5443 5440 5440 5439 5439 5437 5431 5426 5426 5426 5420 5410 5407 5408 5404 5401 5396 5388 5384 5381 5376 5376 5374 5359 5344 5338 5341 5341 5327 5313 5316 5316 5310 5309 5310 5311 5311 5308 5307 5310 5312
5526 5525 5524 5523 5521 5520 5519 5517 5516 5516 5515 5515 5514 5514 5513 5512 5511 5509 5508 5505 5503 5501 5498 5496 5494 5491 5489 5486 5483 5480 5477 5474 5471 5469 5467 5465 5462 5459 5456 5452 5449 5445 5441 5438 5433 5431 5430 5427 5426 5426 5421 5414 5411 5411 5409 5400 5392 5390 5388 5386 5384 5376 5369 5366 5363 5361 5358 5345 5328 5317 5320 5326 5314 5299 5302 5304 5297 5296 5297 5298 5299 5296 5295 5298 5299
5517 5516 5515 5514 5512 5511 5509 5508 5507 5507 5507 5506 5506 5505 5504 5504 5503 5501 5498 5496 5494 5492 5490 5487 5485 5482 5480 5477 5474 5471 5468 5465 5462 5460 5458 5456 5453 5451 5448 5444 5441 5437 5433 5429 5426 5423 5422 5418 5416 5415 5412 5407 5402 5398 5397 5391 5382 5376 5372 5370 5369 5361 5353 5352 5352 5349 5344 5332 5315 5300 5298 5306 5301 5288 5287 5289 5285 5284 5286 5286 5287 5285 5281 5283 5286
5508 5508 5506 5505 5504 5502 5500 5499 5499 5498 5498 5498 5497 5497 5496 5495 5495 5493 5490 5487 5485 5484 5481 5478 5476 5473 5470 5468 5465 5463 5460 5457 5454 5451 5449 5447 5444 5442 5439 5436 5432 5429 5425 5421 5418 5415 5412 5409 5406 5404 5402 5398 5393 5387 5383 5378 5371 5364 5357 5357 5355 5344 5336 5335 5336 5335 5330 5318 5303 5286 5279 5287 5289 5277 5273 5275 5272 5273 5277 5276 5274 5273 5269 5269 5271
5500 5498 5497 5496 5495 5493 5492 5491 5491 5490 5489 5489 5489 5488 5487 5486 5486 5485 5482 5479 5477 5475 5472 5469 5466 5463 5460 5458 5456 5454 5452 5448 5445 5442 5439 5437 5435 5432 5430 5427 5423 5420 5416 5412 5409 5406 5402 5399 5396 5393 5390 5387 5382 5378 5372 5365 5359 5351 5343 5342 5341 5330 5321 5319 5316 5316 5314 5305 5291 5274 5263 5270 5276 5267 5261 5263 5262 5263 5267 5266 5263 5260 5258 5256 5257
5490 5489 5488 5487 5486 5485 5483 5482 5482 5481 5481 5481 5480 5479 5478 5477 5477 5476 5474 5472 5469 5466 5463 5460 5457 5454 5451 5449 5447 5445 5444 5440 5437 5434 5430 5428 5425 5422 5419 5417 5413 5410 5406 5403 5400 5397 5393 5391 5387 5383 5380 5377 5372 5369 5363 5355 5349 5340 5331 5327 5324 5316 5310 5306 5300 5296 5297 5294 5281 5261 5250 5255 5260 5256 5251 5250 5251 5254 5255 5253 5252 5249 5246 5245 5245
5481 5480 5479 5478 5477 5476 5475 5474 5473 5473 5472 5472 5471 5469 5468 5468 5467 5466 5465 5463 5461 5458 5455 5452 5449 5446 5442 5440 5438 5436 5435 5432 5428 5425 5421 5418 5415 5412 5409 5406 5404 5400 5396 5393 5390 5387 5384 5381 5378 5375 5371 5367 5363 5360 5355 5347 5339 5331 5323 5315 5309 5302 5296 5293 5288 5279 5278 5280 5270 5250 5241 5244 5246 5246 5242 5236 5238 5246 5245 5239 5239 5238 5235 5233 5233